| time (UTC) | temp C | wind direction | speed KPH | gust KPH | rain 1hr cm | rain 24hr cm | rain mn cm | humidity % | barometer mb |
| 20260505123209 | 15 | 294 | 4.8 | 8.0 | 0.00 | 0.00 | 0.00 | 55 | 993.8 |
| 20260505122709 | 15 | 279 | 4.8 | 9.7 | 0.00 | 0.00 | 0.00 | 55 | 993.8 |
| 20260505122211 | 15 | 261 | 8.0 | 8.0 | 0.00 | 0.00 | 0.00 | 53 | 993.8 |
| 20260505121711 | 15 | 258 | 8.0 | 11.3 | 0.00 | 0.00 | 0.00 | 53 | 993.8 |
| 20260505121210 | 15 | 292 | 4.8 | 4.8 | 0.00 | 0.00 | 0.00 | 53 | 993.8 |
| 20260505120710 | 15 | 207 | 8.0 | 9.7 | 0.00 | 0.00 | 0.00 | 53 | 993.8 |
| 20260505120210 | 15 | 267 | 4.8 | 8.0 | 0.00 | 0.00 | 0.00 | 52 | 993.7 |
| 20260505115710 | 15 | 248 | 8.0 | 8.0 | 0.00 | 0.00 | 0.00 | 52 | 993.7 |
| 20260505115209 | 15 | 244 | 4.8 | 4.8 | 0.00 | 0.00 | 0.00 | 52 | 993.7 |
| 20260505114709 | 15 | 258 | 8.0 | 8.0 | 0.00 | 0.00 | 0.00 | 52 | 993.5 |
| 20260505114209 | 15 | 236 | 4.8 | 8.0 | 0.00 | 0.00 | 0.00 | 51 | 993.5 |
| 20260505113711 | 15 | 254 | 3.2 | 3.2 | 0.00 | 0.00 | 0.00 | 51 | 993.2 |
| 20260505113210 | 15 | 257 | 8.0 | 9.7 | 0.00 | 0.00 | 0.00 | 51 | 993.2 |
| 20260505112709 | 15 | 258 | 4.8 | 4.8 | 0.00 | 0.00 | 0.00 | 51 | 993.1 |
| 20260505112209 | 15 | 193 | 4.8 | 9.7 | 0.00 | 0.00 | 0.00 | 51 | 993.1 |
| 20260505111710 | 15 | 283 | 3.2 | 8.0 | 0.00 | 0.00 | 0.00 | 51 | 993.1 |
| 20260505111209 | 16 | 193 | 4.8 | 4.8 | 0.00 | 0.00 | 0.00 | 50 | 992.8 |
| 20260505110709 | 16 | 260 | 3.2 | 3.2 | 0.00 | 0.00 | 0.00 | 50 | 992.8 |
| 20260505110209 | 16 | 192 | 8.0 | 8.0 | 0.00 | 0.00 | 0.00 | 50 | 992.6 |
| 20260505102209 | 16 | 235 | 4.8 | 8.0 | 0.00 | 0.00 | 0.00 | 50 | 992.0 |
| 20260505101709 | 17 | 151 | 4.8 | 4.8 | 0.00 | 0.00 | 0.00 | 49 | 992.0 |
| 20260505101211 | 17 | 184 | 3.2 | 4.8 | 0.00 | 0.00 | 0.00 | 49 | 991.7 |
| 20260505100710 | 17 | 244 | 4.8 | 11.3 | 0.00 | 0.00 | 0.00 | 49 | 991.7 |
| 20260505100210 | 17 | 292 | 8.0 | 8.0 | 0.00 | 0.00 | 0.00 | 49 | 991.4 |
| 20260505095710 | 17 | 213 | 8.0 | 9.7 | 0.00 | 0.00 | 0.00 | 48 | 991.4 |
| 20260505095210 | 17 | 205 | 9.7 | 19.3 | 0.00 | 0.00 | 0.00 | 48 | 991.4 |
| 20260505094710 | 17 | 158 | 4.8 | 8.0 | 0.00 | 0.00 | 0.00 | 48 | 991.3 |
| 20260505094210 | 17 | 228 | 8.0 | 9.7 | 0.00 | 0.00 | 0.00 | 47 | 991.3 |
| 20260505093709 | 17 | 117 | 8.0 | 11.3 | 0.00 | 0.00 | 0.00 | 47 | 991.0 |
| 20260505093209 | 18 | 248 | 8.0 | 8.0 | 0.00 | 0.00 | 0.00 | 47 | 991.0 |
| 20260505092709 | 18 | 238 | 9.7 | 12.9 | 0.00 | 0.00 | 0.00 | 47 | 990.9 |
| 20260505092211 | 18 | 246 | 8.0 | 11.3 | 0.00 | 0.00 | 0.00 | 47 | 990.9 |
| 20260505091711 | 18 | 231 | 8.0 | 9.7 | 0.00 | 0.00 | 0.00 | 46 | 990.9 |
| 20260505091210 | 18 | 260 | 9.7 | 11.3 | 0.00 | 0.00 | 0.00 | 46 | 990.6 |
| 20260505090710 | 19 | 171 | 8.0 | 9.7 | 0.00 | 0.00 | 0.00 | 45 | 990.6 |
| 20260505090210 | 19 | 250 | 8.0 | 12.9 | 0.00 | 0.00 | 0.00 | 45 | 990.4 |
| 20260505085710 | 20 | 245 | 16.1 | 16.1 | 0.00 | 0.00 | 0.00 | 45 | 990.4 |
| 20260505085209 | 20 | 191 | 11.3 | 14.5 | 0.00 | 0.00 | 0.00 | 44 | 990.4 |
| 20260505084709 | 20 | 203 | 14.5 | 22.5 | 0.00 | 0.00 | 0.00 | 44 | 990.3 |
| 20260505084209 | 20 | 169 | 12.9 | 19.3 | 0.00 | 0.00 | 0.00 | 44 | 990.3 |
| 20260505083711 | 20 | 189 | 14.5 | 14.5 | 0.00 | 0.00 | 0.00 | 44 | 990.2 |
| 20260505083211 | 20 | 214 | 16.1 | 20.9 | 0.00 | 0.00 | 0.00 | 43 | 990.2 |
| 20260505082711 | 21 | 224 | 11.3 | 20.9 | 0.00 | 0.00 | 0.00 | 43 | 990.1 |
| 20260505082210 | 21 | 236 | 3.2 | 8.0 | 0.00 | 0.00 | 0.00 | 43 | 990.1 |
| 20260505081710 | 21 | 255 | 9.7 | 19.3 | 0.00 | 0.00 | 0.00 | 42 | 990.1 |
| 20260505081210 | 21 | 240 | 14.5 | 16.1 | 0.00 | 0.00 | 0.00 | 42 | 990.0 |
| 20260505080710 | 21 | 200 | 11.3 | 12.9 | 0.00 | 0.00 | 0.00 | 42 | 990.0 |
| 20260505080209 | 21 | 228 | 12.9 | 14.5 | 0.00 | 0.00 | 0.00 | 42 | 989.9 |
| 20260505075709 | 22 | 202 | 11.3 | 16.1 | 0.00 | 0.00 | 0.00 | 41 | 989.9 |
| 20260505075209 | 22 | 259 | 9.7 | 12.9 | 0.00 | 0.00 | 0.00 | 42 | 989.9 |
| 20260505074711 | 22 | 236 | 16.1 | 16.1 | 0.00 | 0.00 | 0.00 | 41 | 989.7 |
| 20260505074211 | 22 | 234 | 14.5 | 14.5 | 0.00 | 0.00 | 0.00 | 40 | 989.7 |
| 20260505073710 | 22 | 191 | 12.9 | 16.1 | 0.00 | 0.00 | 0.00 | 40 | 989.6 |
| 20260505073210 | 22 | 248 | 11.3 | 14.5 | 0.00 | 0.00 | 0.00 | 40 | 989.6 |
| 20260505072710 | 22 | 229 | 11.3 | 12.9 | 0.00 | 0.00 | 0.00 | 40 | 989.5 |
| 20260505072210 | 23 | 203 | 9.7 | 16.1 | 0.00 | 0.00 | 0.00 | 39 | 989.5 |
| 20260505071709 | 22 | 247 | 11.3 | 11.3 | 0.00 | 0.00 | 0.00 | 39 | 989.5 |
| 20260505071209 | 22 | 214 | 22.5 | 25.7 | 0.00 | 0.00 | 0.00 | 39 | 989.4 |
| 20260505070711 | 23 | 228 | 11.3 | 11.3 | 0.00 | 0.00 | 0.00 | 39 | 989.4 |
| 20260505070211 | 23 | 191 | 14.5 | 16.1 | 0.00 | 0.00 | 0.00 | 39 | 989.3 |
| 20260505065710 | 23 | 202 | 12.9 | 16.1 | 0.00 | 0.00 | 0.00 | 39 | 989.3 |
| 20260505065210 | 23 | 288 | 14.5 | 12.9 | 0.00 | 0.00 | 0.00 | 38 | 989.3 |
| 20260505064710 | 23 | 270 | 11.3 | 20.9 | 0.00 | 0.00 | 0.00 | 38 | 989.3 |
| 20260505064210 | 23 | 273 | 12.9 | 12.9 | 0.00 | 0.00 | 0.00 | 38 | 989.3 |
| 20260505063709 | 23 | 192 | 16.1 | 16.1 | 0.00 | 0.00 | 0.00 | 38 | 989.1 |
| 20260505063210 | 23 | 210 | 9.7 | 14.5 | 0.00 | 0.00 | 0.00 | 38 | 989.1 |
| 20260505062709 | 23 | 227 | 19.3 | 29.0 | 0.00 | 0.00 | 0.00 | 37 | 989.0 |
| 20260505062209 | 24 | 261 | 11.3 | 19.3 | 0.00 | 0.00 | 0.00 | 37 | 989.0 |
| 20260505061711 | 23 | 195 | 14.5 | 19.3 | 0.00 | 0.00 | 0.00 | 37 | 989.0 |
| 20260505061211 | 24 | 219 | 12.9 | 19.3 | 0.00 | 0.00 | 0.00 | 36 | 989.0 |
| 20260505060710 | 23 | 251 | 14.5 | 20.9 | 0.00 | 0.00 | 0.00 | 36 | 989.0 |
| 20260505060210 | 24 | 191 | 12.9 | 16.1 | 0.00 | 0.00 | 0.00 | 36 | 988.9 |
| 20260505055710 | 25 | 243 | 9.7 | 11.3 | 0.00 | 0.00 | 0.00 | 35 | 988.9 |
| 20260505055210 | 25 | 275 | 9.7 | 14.5 | 0.00 | 0.00 | 0.00 | 34 | 988.9 |
| 20260505054710 | 25 | 251 | 8.0 | 11.3 | 0.00 | 0.00 | 0.00 | 34 | 989.0 |
| 20260505054210 | 25 | 202 | 11.3 | 14.5 | 0.00 | 0.00 | 0.00 | 34 | 989.0 |
| 20260505053709 | 24 | 201 | 14.5 | 16.1 | 0.00 | 0.00 | 0.00 | 34 | 989.1 |
| 20260505053210 | 24 | 297 | 8.0 | 11.3 | 0.00 | 0.00 | 0.00 | 33 | 989.1 |
| 20260505052710 | 25 | 251 | 9.7 | 12.9 | 0.00 | 0.00 | 0.00 | 32 | 989.2 |
| 20260505052209 | 25 | 233 | 9.7 | 9.7 | 0.00 | 0.00 | 0.00 | 31 | 989.2 |
| 20260505051709 | 25 | 192 | 4.8 | 4.8 | 0.00 | 0.00 | 0.00 | 25 | 989.2 |
| 20260505051209 | 25 | 223 | 4.8 | 8.0 | 0.00 | 0.00 | 0.00 | 25 | 989.4 |
| 20260505050709 | 24 | 192 | 4.8 | 4.8 | 0.00 | 0.00 | 0.00 | 24 | 989.4 |
| 20260505050211 | 24 | 165 | 4.8 | 9.7 | 0.00 | 0.00 | 0.00 | 24 | 989.5 |
| 20260505041710 | 24 | 254 | 4.8 | 8.0 | 0.00 | 0.00 | 0.00 | 22 | 990.0 |
| 20260505041210 | 24 | 249 | 3.2 | 4.8 | 0.00 | 0.00 | 0.00 | 21 | 990.0 |
| 20260505040710 | 23 | 218 | 3.2 | 4.8 | 0.00 | 0.00 | 0.00 | 22 | 990.0 |
| 20260505040210 | 23 | 355 | 4.8 | 4.8 | 0.00 | 0.00 | 0.00 | 23 | 990.1 |
| 20260505035710 | 23 | 9 | 3.2 | 4.8 | 0.00 | 0.00 | 0.00 | 23 | 990.2 |
| 20260505035211 | 23 | 187 | 4.8 | 4.8 | 0.00 | 0.00 | 0.00 | 23 | 990.2 |
| 20260505034711 | 22 | 120 | 3.2 | 4.8 | 0.00 | 0.00 | 0.00 | 23 | 990.3 |
| 20260505034211 | 23 | 190 | 4.8 | 8.0 | 0.00 | 0.00 | 0.00 | 22 | 990.3 |
| 20260505033710 | 23 | 273 | 3.2 | 3.2 | 0.00 | 0.00 | 0.00 | 22 | 990.4 |
| 20260505033210 | 23 | 250 | 4.8 | 8.0 | 0.00 | 0.00 | 0.00 | 22 | 990.4 |
| 20260505032710 | 23 | 269 | 3.2 | 4.8 | 0.00 | 0.00 | 0.00 | 23 | 990.5 |
| 20260505032210 | 23 | 270 | 4.8 | 4.8 | 0.00 | 0.00 | 0.00 | 23 | 990.5 |
| 20260505031710 | 22 | 191 | 3.2 | 4.8 | 0.00 | 0.00 | 0.00 | 25 | 990.5 |
| 20260505031210 | 22 | 102 | 4.8 | 4.8 | 0.00 | 0.00 | 0.00 | 23 | 990.6 |
| 20260505030709 | 22 | 225 | 3.2 | 3.2 | 0.00 | 0.00 | 0.00 | 22 | 990.6 |
| 20260505030209 | 22 | 331 | 4.8 | 4.8 | 0.00 | 0.00 | 0.00 | 21 | 990.7 |
| 20260505025709 | 22 | 286 | 8.0 | 8.0 | 0.00 | 0.00 | 0.00 | 22 | 990.7 |
| 20260505025211 | 22 | 340 | 3.2 | 4.8 | 0.00 | 0.00 | 0.00 | 22 | 990.7 |
| 20260505024710 | 21 | 297 | 4.8 | 8.0 | 0.00 | 0.00 | 0.00 | 22 | 990.7 |
| 20260505024210 | 21 | 180 | 3.2 | 4.8 | 0.00 | 0.00 | 0.00 | 26 | 990.7 |
| 20260505023710 | 21 | 193 | 4.8 | 8.0 | 0.00 | 0.00 | 0.00 | 24 | 990.9 |
| 20260505023210 | 21 | 180 | 4.8 | 9.7 | 0.00 | 0.00 | 0.00 | 23 | 990.9 |
| 20260505022710 | 22 | 81 | 4.8 | 8.0 | 0.00 | 0.00 | 0.00 | 23 | 991.0 |
| 20260505022209 | 21 | 0 | 3.2 | 8.0 | 0.00 | 0.00 | 0.00 | 25 | 991.1 |
| 20260505021709 | 20 | 12 | 3.2 | 8.0 | 0.00 | 0.00 | 0.00 | 24 | 991.1 |
| 20260505021210 | 21 | 173 | 4.8 | 8.0 | 0.00 | 0.00 | 0.00 | 25 | 991.2 |
| 20260505020710 | 21 | 191 | 3.2 | 8.0 | 0.00 | 0.00 | 0.00 | 24 | 991.2 |
| 20260505020210 | 21 | 202 | 4.8 | 9.7 | 0.00 | 0.00 | 0.00 | 24 | 991.3 |
| 20260505015709 | 20 | 235 | 4.8 | 4.8 | 0.00 | 0.00 | 0.00 | 25 | 991.3 |
| 20260505015209 | 20 | 336 | 3.2 | 3.2 | 0.00 | 0.00 | 0.00 | 25 | 991.3 |
| 20260505014709 | 20 | 166 | 4.8 | 4.8 | 0.00 | 0.00 | 0.00 | 27 | 991.4 |
| 20260505014211 | 20 | 172 | 3.2 | 3.2 | 0.00 | 0.00 | 0.00 | 25 | 991.4 |
| 20260505013711 | 21 | 118 | 8.0 | 9.7 | 0.00 | 0.00 | 0.00 | 25 | 991.5 |
| 20260505013211 | 21 | 98 | 4.8 | 4.8 | 0.00 | 0.00 | 0.00 | 23 | 991.5 |
| 20260505012710 | 20 | 162 | 4.8 | 9.7 | 0.00 | 0.00 | 0.00 | 26 | 991.5 |
| 20260505012210 | 20 | 159 | 4.8 | 8.0 | 0.00 | 0.00 | 0.00 | 24 | 991.5 |
| 20260505011710 | 20 | 128 | 3.2 | 8.0 | 0.00 | 0.00 | 0.00 | 26 | 991.5 |
| 20260505011210 | 20 | 101 | 3.2 | 4.8 | 0.00 | 0.00 | 0.00 | 24 | 991.6 |
| 20260505010710 | 19 | 283 | 3.2 | 4.8 | 0.00 | 0.00 | 0.00 | 25 | 991.6 |
| 20260505010210 | 19 | 112 | 3.2 | 3.2 | 0.00 | 0.00 | 0.00 | 25 | 991.6 |
| 20260505005709 | 20 | 147 | 4.8 | 4.8 | 0.00 | 0.00 | 0.00 | 28 | 991.6 |
| 20260505005210 | 19 | 18 | 8.0 | 9.7 | 0.00 | 0.00 | 0.00 | 25 | 991.6 |
| 20260505004710 | 19 | 2 | 3.2 | 3.2 | 0.00 | 0.00 | 0.00 | 25 | 991.7 |
| 20260505004209 | 19 | 45 | 4.8 | 4.8 | 0.00 | 0.00 | 0.00 | 25 | 991.7 |
| 20260505003709 | 17 | 3 | 3.2 | 4.8 | 0.00 | 0.00 | 0.00 | 28 | 991.6 |
| 20260505003211 | 18 | 116 | 8.0 | 9.7 | 0.00 | 0.00 | 0.00 | 28 | 991.6 |
| 20260505002711 | 18 | 144 | 9.7 | 11.3 | 0.00 | 0.00 | 0.00 | 28 | 991.6 |
| 20260505002210 | 18 | 121 | 4.8 | 9.7 | 0.00 | 0.00 | 0.00 | 31 | 991.6 |
| 20260505001710 | 17 | 280 | 3.2 | 9.7 | 0.00 | 0.00 | 0.00 | 28 | 991.6 |
| 20260505001210 | 18 | 270 | 8.0 | 9.7 | 0.00 | 0.00 | 0.00 | 29 | 991.6 |
| 20260505000710 | 18 | 17 | 4.8 | 4.8 | 0.00 | 0.00 | 0.00 | 28 | 991.6 |
| 20260505000211 | 17 | 199 | 4.8 | 8.0 | 0.00 | 0.00 | 0.00 | 29 | 991.6 |
| 20260504235709 | 17 | 305 | 4.8 | 4.8 | 0.00 | 0.00 | 0.00 | 29 | 991.6 |
| 20260504235209 | 18 | 314 | 8.0 | 9.7 | 0.00 | 0.00 | 0.00 | 28 | 991.6 |
| 20260504234711 | 17 | 77 | 3.2 | 3.2 | 0.00 | 0.00 | 0.00 | 31 | 991.7 |
| 20260504234211 | 17 | 152 | 3.2 | 4.8 | 0.00 | 0.00 | 0.00 | 30 | 991.7 |
| 20260504233710 | 17 | 228 | 3.2 | 8.0 | 0.00 | 0.00 | 0.00 | 30 | 991.9 |
| 20260504233210 | 17 | 117 | 4.8 | 4.8 | 0.00 | 0.00 | 0.00 | 30 | 991.9 |
| 20260504232710 | 17 | 86 | 3.2 | 4.8 | 0.00 | 0.00 | 0.00 | 32 | 991.9 |
| 20260504232210 | 16 | 102 | 1.6 | 4.8 | 0.00 | 0.00 | 0.00 | 32 | 991.9 |
| 20260504231709 | 15 | 147 | 4.8 | 4.8 | 0.00 | 0.00 | 0.00 | 34 | 991.9 |
| 20260504231210 | 16 | 112 | 4.8 | 9.7 | 0.00 | 0.03 | 0.00 | 34 | 992.0 |
| 20260504230710 | 15 | 192 | 4.8 | 8.0 | 0.00 | 0.03 | 0.00 | 35 | 992.0 |
| 20260504230210 | 15 | 177 | 8.0 | 8.0 | 0.00 | 0.03 | 0.00 | 34 | 991.8 |
| 20260504225710 | 16 | 191 | 8.0 | 8.0 | 0.00 | 0.03 | 0.00 | 34 | 991.8 |
| 20260504225209 | 15 | 175 | 3.2 | 3.2 | 0.00 | 0.03 | 0.00 | 35 | 991.8 |
| 20260504224709 | 15 | 85 | 3.2 | 4.8 | 0.00 | 0.03 | 0.00 | 38 | 991.7 |
| 20260504224209 | 15 | 90 | 4.8 | 8.0 | 0.00 | 0.03 | 0.00 | 38 | 991.7 |
| 20260504223711 | 15 | 144 | 3.2 | 4.8 | 0.00 | 0.03 | 0.00 | 39 | 991.6 |
| 20260504223211 | 15 | 166 | 8.0 | 8.0 | 0.00 | 0.03 | 0.00 | 40 | 991.6 |
| 20260504222710 | 15 | 206 | 8.0 | 8.0 | 0.00 | 0.03 | 0.00 | 39 | 991.5 |
| 20260504222209 | 15 | 157 | 3.2 | 4.8 | 0.00 | 0.03 | 0.00 | 39 | 991.5 |
| 20260504221709 | 15 | 269 | 3.2 | 3.2 | 0.00 | 0.03 | 0.00 | 40 | 991.5 |
| 20260504221211 | 13 | 282 | 3.2 | 3.2 | 0.00 | 0.05 | 0.00 | 40 | 991.5 |
| 20260504220711 | 14 | 134 | 4.8 | 8.0 | 0.00 | 0.05 | 0.00 | 40 | 991.5 |
| 20260504220211 | 14 | 121 | 3.2 | 8.0 | 0.00 | 0.05 | 0.00 | 41 | 991.3 |
| 20260504215710 | 14 | 43 | 3.2 | 3.2 | 0.00 | 0.05 | 0.00 | 41 | 991.3 |
| 20260504215210 | 14 | 125 | 3.2 | 3.2 | 0.00 | 0.05 | 0.00 | 40 | 991.3 |
| 20260504214710 | 13 | 321 | 3.2 | 4.8 | 0.00 | 0.08 | 0.00 | 42 | 991.2 |
| 20260504214210 | 13 | 12 | 3.2 | 4.8 | 0.00 | 0.10 | 0.00 | 41 | 991.2 |
| 20260504213710 | 13 | 338 | 4.8 | 9.7 | 0.00 | 0.13 | 0.00 | 42 | 991.2 |
| 20260504213209 | 13 | 4 | 4.8 | 8.0 | 0.00 | 0.15 | 0.00 | 42 | 991.2 |
| 20260504212709 | 12 | 290 | 4.8 | 4.8 | 0.00 | 0.15 | 0.00 | 42 | 991.1 |
| 20260504212211 | 12 | 315 | 3.2 | 3.2 | 0.00 | 0.15 | 0.00 | 43 | 991.0 |
| 20260504211711 | 12 | 104 | 4.8 | 3.2 | 0.00 | 0.15 | 0.00 | 44 | 991.0 |
| 20260504211211 | 12 | 202 | 3.2 | 3.2 | 0.00 | 0.15 | 0.00 | 48 | 990.7 |
| 20260504210710 | 12 | 208 | 3.2 | 4.8 | 0.00 | 0.15 | 0.00 | 49 | 990.7 |
| 20260504210210 | 11 | 202 | 3.2 | 4.8 | 0.00 | 0.15 | 0.00 | 49 | 990.4 |
| 20260504205710 | 11 | 124 | 1.6 | 1.6 | 0.00 | 0.15 | 0.00 | 49 | 990.4 |
| 20260504205210 | 11 | 188 | 3.2 | 4.8 | 0.00 | 0.15 | 0.00 | 48 | 990.4 |
| 20260504204710 | 11 | 281 | 3.2 | 8.0 | 0.00 | 0.15 | 0.00 | 45 | 990.1 |
| 20260504204209 | 11 | 9 | 1.6 | 1.6 | 0.00 | 0.15 | 0.00 | 48 | 990.1 |
| 20260504203709 | 11 | 333 | 3.2 | 3.2 | 0.00 | 0.15 | 0.00 | 48 | 990.0 |
| 20260504203211 | 11 | 357 | 4.8 | 8.0 | 0.00 | 0.15 | 0.00 | 47 | 990.0 |
| 20260504202711 | 11 | 6 | 3.2 | 4.8 | 0.00 | 0.15 | 0.00 | 47 | 989.9 |
| 20260504202210 | 11 | 344 | 4.8 | 4.8 | 0.00 | 0.15 | 0.00 | 48 | 989.8 |
| 20260504201710 | 11 | 13 | 8.0 | 11.3 | 0.00 | 0.18 | 0.00 | 48 | 989.8 |
| 20260504201210 | 11 | 293 | 8.0 | 9.7 | 0.00 | 0.18 | 0.00 | 47 | 989.4 |
| 20260504200710 | 11 | 324 | 9.7 | 14.5 | 0.00 | 0.18 | 0.00 | 46 | 989.4 |
| 20260504200209 | 11 | 18 | 4.8 | 8.0 | 0.00 | 0.18 | 0.00 | 43 | 989.0 |
| 20260504195709 | 11 | 348 | 8.0 | 9.7 | 0.00 | 0.18 | 0.00 | 42 | 989.0 |
| 20260504195211 | 11 | 21 | 8.0 | 11.3 | 0.00 | 0.18 | 0.00 | 42 | 989.0 |
| 20260504194711 | 10 | 292 | 8.0 | 11.3 | 0.00 | 0.18 | 0.00 | 49 | 988.9 |
| 20260504194210 | 10 | 354 | 3.2 | 3.2 | 0.00 | 0.18 | 0.00 | 48 | 988.9 |
| 20260504193709 | 10 | 270 | 3.2 | 4.8 | 0.00 | 0.20 | 0.00 | 48 | 988.5 |
| 20260504193209 | 10 | 276 | 4.8 | 4.8 | 0.00 | 0.20 | 0.00 | 49 | 988.5 |
| 20260504192711 | 10 | 289 | 4.8 | 4.8 | 0.00 | 0.20 | 0.00 | 49 | 988.4 |
| 20260504192211 | 10 | 273 | 4.8 | 4.8 | 0.00 | 0.20 | 0.00 | 48 | 988.4 |
| 20260504191710 | 10 | 243 | 4.8 | 4.8 | 0.00 | 0.20 | 0.00 | 49 | 988.4 |
| 20260504191210 | 10 | 270 | 4.8 | 8.0 | 0.00 | 0.23 | 0.00 | 49 | 988.2 |
| 20260504190710 | 11 | 270 | 4.8 | 4.8 | 0.00 | 0.25 | 0.00 | 48 | 988.2 |
| 20260504190211 | 11 | 287 | 4.8 | 4.8 | 0.00 | 0.28 | 0.00 | 48 | 988.0 |
| 20260504185711 | 11 | 278 | 4.8 | 4.8 | 0.00 | 0.33 | 0.00 | 48 | 988.0 |
| 20260504185210 | 11 | 351 | 4.8 | 9.7 | 0.00 | 0.38 | 0.00 | 49 | 988.0 |
| 20260504184710 | 11 | 292 | 4.8 | 4.8 | 0.00 | 0.48 | 0.00 | 50 | 987.7 |
| 20260504184210 | 11 | 338 | 8.0 | 12.9 | 0.00 | 0.51 | 0.00 | 50 | 987.7 |
| 20260504183710 | 11 | 330 | 9.7 | 16.1 | 0.00 | 0.56 | 0.00 | 50 | 987.3 |
| 20260504183210 | 11 | 246 | 8.0 | 8.0 | 0.00 | 0.64 | 0.00 | 51 | 987.3 |
| 20260504182709 | 11 | 329 | 11.3 | 12.9 | 0.00 | 0.74 | 0.00 | 51 | 987.2 |
| 20260504182209 | 11 | 13 | 8.0 | 9.7 | 0.00 | 0.86 | 0.00 | 51 | 987.1 |
| 20260504181711 | 11 | 348 | 9.7 | 9.7 | 0.00 | 0.91 | 0.00 | 51 | 987.1 |
| 20260504181211 | 11 | 78 | 8.0 | 9.7 | 0.00 | 0.99 | 0.00 | 51 | 986.9 |
| 20260504180710 | 11 | 37 | 9.7 | 16.1 | 0.00 | 0.99 | 0.00 | 51 | 986.9 |
| 20260504180210 | 11 | 17 | 11.3 | 11.3 | 0.00 | 1.02 | 0.00 | 51 | 986.7 |
| 20260504175710 | 11 | 356 | 8.0 | 9.7 | 0.00 | 1.04 | 0.00 | 53 | 986.7 |
| 20260504175210 | 11 | 103 | 8.0 | 9.7 | 0.00 | 1.09 | 0.00 | 52 | 986.7 |
| 20260504174710 | 11 | 90 | 8.0 | 4.8 | 0.00 | 1.14 | 0.00 | 52 | 986.2 |
| 20260504174209 | 12 | 3 | 9.7 | 14.5 | 0.00 | 1.17 | 0.00 | 52 | 986.2 |
| 20260504173711 | 11 | 16 | 14.5 | 20.9 | 0.00 | 1.22 | 0.00 | 53 | 985.7 |
| 20260504173211 | 11 | 0 | 8.0 | 8.0 | 0.00 | 1.24 | 0.00 | 53 | 985.7 |
| 20260504172711 | 12 | 337 | 8.0 | 9.7 | 0.00 | 1.27 | 0.00 | 54 | 985.6 |
| 20260504172210 | 12 | 352 | 8.0 | 8.0 | 0.00 | 1.30 | 0.00 | 54 | 985.4 |
| 20260504171710 | 12 | 49 | 4.8 | 4.8 | 0.00 | 1.32 | 0.00 | 54 | 985.4 |
| 20260504171210 | 12 | 15 | 8.0 | 8.0 | 0.00 | 1.35 | 0.00 | 53 | 985.0 |
| 20260504170710 | 12 | 164 | 3.2 | 4.8 | 0.00 | 1.37 | 0.00 | 53 | 985.0 |
| 20260504170209 | 12 | 5 | 4.8 | 8.0 | 0.00 | 1.40 | 0.00 | 51 | 984.6 |
| 20260504160115 | 14 | 88 | 4.8 | 8.0 | 0.00 | 1.50 | 0.00 | 45 | 983.0 |
| 20260504151116 | 15 | 30 | 14.5 | 14.5 | 0.00 | 1.50 | 0.00 | 39 | 981.8 |
| 20260504150616 | 15 | 279 | 11.3 | 9.7 | 0.00 | 1.52 | 0.00 | 39 | 981.8 |
| 20260504150116 | 15 | 333 | 12.9 | 32.2 | 0.00 | 1.52 | 0.00 | 39 | 981.4 |
| 20260504141115 | 15 | 346 | 19.3 | 20.9 | 0.00 | 1.52 | 1.52 | 40 | 980.4 |
| 20260504140615 | 15 | 6 | 8.0 | 9.7 | 0.00 | 1.55 | 1.52 | 40 | 980.4 |
| 20260504140116 | 15 | 3 | 8.0 | 12.9 | 0.00 | 1.55 | 1.52 | 40 | 980.1 |
| 20260504130615 | 16 | 7 | 4.8 | 3.2 | 0.00 | 1.55 | 1.52 | 40 | 979.0 |
| 20260504130117 | 16 | 272 | 9.7 | 11.3 | 0.00 | 1.55 | 1.52 | 39 | 978.7 |